Location: Zagreb
(45.8000°N, 16.0000°E)
Time: 13:39:13
(UTC+02:00)

Tiros 1 despin weight - Pass Details

Date: 14 August 2022
Orbit: 590 x 639 km, 48.2° (Epoch: 23 September)

Event Time Altitude Azimuth Distance (km) Brightness Sun altitude
Rises 17:15:47 0° 289° (WNW) 2,832 ? 28.4°
Reaches altitude 10° 17:18:06 10° 285° (WNW) 1,924 ? 27.9°
Maximum altitude 17:22:24 54° 208° (SSW) 723 ? 27.2°
Drops below altitude 10° 17:26:40 10° 131° (SE) 1,911 ? 26.5°
Sets 17:28:58 0° 127° (SE) 2,811 ? 26.1°
